Year,Month,Day,Hour,Minute,Value (Times are PST for temperature in C)
2009,04,27,00,00,5.30
2009,04,27,00,01,5.30
2009,04,27,00,02,5.30
2009,04,27,00,03,5.20
2009,04,27,00,04,5.20
2009,04,27,00,05,5.20
2009,04,27,00,06,5.20
2009,04,27,00,07,5.10
2009,04,27,00,08,5.10
2009,04,27,00,09,5.10
2009,04,27,00,10,5.10
2009,04,27,00,11,5.10
2009,04,27,00,12,5.10
2009,04,27,00,13,5.10
2009,04,27,00,14,5.10
2009,04,27,00,15,5.10
2009,04,27,00,16,5.10
2009,04,27,00,17,5.00
2009,04,27,00,18,4.90
2009,04,27,00,19,4.90
2009,04,27,00,20,4.90
2009,04,27,00,21,4.90
2009,04,27,00,22,4.90
2009,04,27,00,23,4.90
2009,04,27,00,24,4.90
2009,04,27,00,25,4.90
2009,04,27,00,26,4.90
2009,04,27,00,27,4.90
2009,04,27,00,28,4.80
2009,04,27,00,29,4.80
2009,04,27,00,30,4.80
2009,04,27,00,31,4.80
2009,04,27,00,32,4.80
2009,04,27,00,33,4.70
2009,04,27,00,34,4.70
2009,04,27,00,35,4.70
2009,04,27,00,36,4.60
2009,04,27,00,37,4.60
2009,04,27,00,38,4.60
2009,04,27,00,39,4.70
2009,04,27,00,40,4.70
2009,04,27,00,41,4.70
2009,04,27,00,42,4.70
2009,04,27,00,43,4.70
2009,04,27,00,44,4.70
2009,04,27,00,45,4.70
2009,04,27,00,46,4.70
2009,04,27,00,47,4.70
2009,04,27,00,48,4.70
2009,04,27,00,49,4.70
2009,04,27,00,50,4.70
2009,04,27,00,51,4.60
2009,04,27,00,52,4.60
2009,04,27,00,53,4.60
2009,04,27,00,54,4.60
2009,04,27,00,55,4.60
2009,04,27,00,56,4.60
2009,04,27,00,57,4.60
2009,04,27,00,58,4.60
2009,04,27,00,59,4.60
2009,04,27,01,00,4.60
2009,04,27,01,01,4.60
2009,04,27,01,02,4.60
2009,04,27,01,03,4.60
2009,04,27,01,04,4.60
2009,04,27,01,05,4.60
2009,04,27,01,06,4.60
2009,04,27,01,07,4.60
2009,04,27,01,08,4.60
2009,04,27,01,09,4.60
2009,04,27,01,10,4.60
2009,04,27,01,11,4.60
2009,04,27,01,12,4.50
2009,04,27,01,13,4.50
2009,04,27,01,14,4.50
2009,04,27,01,15,4.50
2009,04,27,01,16,4.50
2009,04,27,01,17,4.50
2009,04,27,01,18,4.40
2009,04,27,01,19,4.40
2009,04,27,01,20,4.40
2009,04,27,01,21,4.40
2009,04,27,01,22,4.40
2009,04,27,01,23,4.40
2009,04,27,01,24,4.40
2009,04,27,01,25,4.30
2009,04,27,01,26,4.30
2009,04,27,01,27,4.30
2009,04,27,01,28,4.20
2009,04,27,01,29,4.20
2009,04,27,01,30,4.20
2009,04,27,01,31,4.20
2009,04,27,01,32,4.20
2009,04,27,01,33,4.30
2009,04,27,01,34,4.30
2009,04,27,01,35,4.30
2009,04,27,01,36,4.20
2009,04,27,01,37,4.20
2009,04,27,01,38,4.20
2009,04,27,01,39,4.20
2009,04,27,01,40,4.20
2009,04,27,01,41,4.20
2009,04,27,01,42,4.20
2009,04,27,01,43,4.20
2009,04,27,01,44,4.20
2009,04,27,01,45,4.20
2009,04,27,01,46,4.10
2009,04,27,01,47,4.10
2009,04,27,01,48,4.10
2009,04,27,01,49,4.10
2009,04,27,01,50,4.10
2009,04,27,01,51,4.10
2009,04,27,01,52,4.00
2009,04,27,01,53,4.00
2009,04,27,01,54,4.00
2009,04,27,01,55,4.00
2009,04,27,01,56,4.00
2009,04,27,01,57,4.00
2009,04,27,01,58,4.00
2009,04,27,01,59,4.00
2009,04,27,02,00,4.00
2009,04,27,02,01,4.00
2009,04,27,02,02,3.90
2009,04,27,02,03,3.90
2009,04,27,02,04,3.90
2009,04,27,02,05,3.90
2009,04,27,02,06,3.90
2009,04,27,02,07,3.90
2009,04,27,02,08,3.90
2009,04,27,02,09,3.90
2009,04,27,02,10,3.90
2009,04,27,02,11,3.90
2009,04,27,02,12,3.90
2009,04,27,02,13,3.80
2009,04,27,02,14,3.80
2009,04,27,02,15,3.80
2009,04,27,02,16,3.80
2009,04,27,02,17,3.80
2009,04,27,02,18,3.80
2009,04,27,02,19,3.80
2009,04,27,02,20,3.80
2009,04,27,02,21,3.80
2009,04,27,02,22,3.80
2009,04,27,02,23,3.80
2009,04,27,02,24,3.80
2009,04,27,02,25,3.80
2009,04,27,02,26,3.80
2009,04,27,02,27,3.80
2009,04,27,02,28,3.80
2009,04,27,02,29,3.80
2009,04,27,02,30,3.80
2009,04,27,02,31,3.70
2009,04,27,02,32,3.70
2009,04,27,02,33,3.70
2009,04,27,02,34,3.70
2009,04,27,02,35,3.70
2009,04,27,02,36,3.70
2009,04,27,02,37,3.70
2009,04,27,02,38,3.70
2009,04,27,02,39,3.70
2009,04,27,02,40,3.70
2009,04,27,02,41,3.80
2009,04,27,02,42,3.80
2009,04,27,02,43,3.80
2009,04,27,02,44,3.80
2009,04,27,02,45,3.80
2009,04,27,02,46,3.80
2009,04,27,02,47,3.80
2009,04,27,02,48,3.80
2009,04,27,02,49,3.80
2009,04,27,02,50,3.80
2009,04,27,02,51,3.80
2009,04,27,02,52,3.80
2009,04,27,02,53,3.80
2009,04,27,02,54,3.80
2009,04,27,02,55,3.80
2009,04,27,02,56,3.80
2009,04,27,02,57,3.80
2009,04,27,02,58,3.80
2009,04,27,02,59,3.80
2009,04,27,03,00,3.80
2009,04,27,03,01,3.80
2009,04,27,03,02,3.80
2009,04,27,03,03,3.80
2009,04,27,03,04,3.80
2009,04,27,03,05,3.80
2009,04,27,03,06,3.80
2009,04,27,03,07,3.80
2009,04,27,03,08,3.80
2009,04,27,03,09,3.80
2009,04,27,03,10,3.80
2009,04,27,03,11,3.80
2009,04,27,03,12,3.90
2009,04,27,03,13,3.90
2009,04,27,03,14,3.90
2009,04,27,03,15,4.00
2009,04,27,03,16,4.00
2009,04,27,03,17,4.00
2009,04,27,03,18,4.00
2009,04,27,03,19,4.00
2009,04,27,03,20,4.10
2009,04,27,03,21,4.10
2009,04,27,03,22,4.10
2009,04,27,03,23,4.10
2009,04,27,03,24,4.10
2009,04,27,03,25,4.20
2009,04,27,03,26,4.20
2009,04,27,03,27,4.20
2009,04,27,03,28,4.20
2009,04,27,03,29,4.20
2009,04,27,03,30,4.20
2009,04,27,03,31,4.20
2009,04,27,03,32,4.20
2009,04,27,03,33,4.20
2009,04,27,03,34,4.20
2009,04,27,03,35,4.20
2009,04,27,03,36,4.30
2009,04,27,03,37,4.30
2009,04,27,03,38,4.30
2009,04,27,03,39,4.30
2009,04,27,03,40,4.30
2009,04,27,03,41,4.40
2009,04,27,03,42,4.40
2009,04,27,03,43,4.40
2009,04,27,03,44,4.40
2009,04,27,03,45,4.40
2009,04,27,03,46,4.40
2009,04,27,03,47,4.40
2009,04,27,03,48,4.30
2009,04,27,03,49,4.30
2009,04,27,03,50,4.20
2009,04,27,03,51,4.20
2009,04,27,03,52,4.20
2009,04,27,03,53,4.20
2009,04,27,03,54,4.20
2009,04,27,03,55,4.20
2009,04,27,03,56,4.20
2009,04,27,03,57,4.20
2009,04,27,03,58,4.20
2009,04,27,03,59,4.20
2009,04,27,04,00,4.20
2009,04,27,04,01,4.20
2009,04,27,04,02,4.20
2009,04,27,04,03,4.20
2009,04,27,04,04,4.20
2009,04,27,04,05,4.20
2009,04,27,04,06,4.20
2009,04,27,04,07,4.20
2009,04,27,04,08,4.20
2009,04,27,04,09,4.20
2009,04,27,04,10,4.20
2009,04,27,04,11,4.20
2009,04,27,04,12,4.10
2009,04,27,04,13,4.10
2009,04,27,04,14,4.10
2009,04,27,04,15,4.10
2009,04,27,04,16,4.10
2009,04,27,04,17,4.10
2009,04,27,04,18,4.00
2009,04,27,04,19,4.00
2009,04,27,04,20,4.00
2009,04,27,04,21,4.00
2009,04,27,04,22,4.00
2009,04,27,04,23,4.00
2009,04,27,04,24,4.00
2009,04,27,04,25,4.00
2009,04,27,04,26,3.90
2009,04,27,04,27,3.90
2009,04,27,04,28,3.90
2009,04,27,04,29,3.90
2009,04,27,04,30,3.90
2009,04,27,04,31,3.90
2009,04,27,04,32,3.80
2009,04,27,04,33,3.80
2009,04,27,04,34,3.80
2009,04,27,04,35,3.80
2009,04,27,04,36,3.80
2009,04,27,04,37,3.80
2009,04,27,04,38,3.80
2009,04,27,04,39,3.80
2009,04,27,04,40,3.80
2009,04,27,04,41,3.80
2009,04,27,04,42,3.80
2009,04,27,04,43,3.70
2009,04,27,04,44,3.70
2009,04,27,04,45,3.70
2009,04,27,04,46,3.70
2009,04,27,04,47,3.60
2009,04,27,04,48,3.60
2009,04,27,04,49,3.60
2009,04,27,04,50,3.60
2009,04,27,04,51,3.60
2009,04,27,04,52,3.60
2009,04,27,04,53,3.60
2009,04,27,04,54,3.60
2009,04,27,04,55,3.60
2009,04,27,04,56,3.60
2009,04,27,04,57,3.60
2009,04,27,04,58,3.60
2009,04,27,04,59,3.60
2009,04,27,05,00,3.60
2009,04,27,05,01,3.60
2009,04,27,05,02,3.60
2009,04,27,05,03,3.60
2009,04,27,05,04,3.60
2009,04,27,05,05,3.60
2009,04,27,05,06,3.60
2009,04,27,05,07,3.60
2009,04,27,05,08,3.50
2009,04,27,05,09,3.50
2009,04,27,05,10,3.50
2009,04,27,05,11,3.50
2009,04,27,05,12,3.50
2009,04,27,05,13,3.50
2009,04,27,05,14,3.50
2009,04,27,05,15,3.50
2009,04,27,05,16,3.50
2009,04,27,05,17,3.50
2009,04,27,05,18,3.50
2009,04,27,05,19,3.50
2009,04,27,05,20,3.50
2009,04,27,05,21,3.50
2009,04,27,05,22,3.50
2009,04,27,05,23,3.50
2009,04,27,05,24,3.50
2009,04,27,05,25,3.40
2009,04,27,05,26,3.40
2009,04,27,05,27,3.40
2009,04,27,05,28,3.40
2009,04,27,05,29,3.40
2009,04,27,05,30,3.40
2009,04,27,05,31,3.40
2009,04,27,05,32,3.40
2009,04,27,05,33,3.40
2009,04,27,05,34,3.30
2009,04,27,05,35,3.30
2009,04,27,05,36,3.30
2009,04,27,05,37,3.30
2009,04,27,05,38,3.30
2009,04,27,05,39,3.30
2009,04,27,05,40,3.30
2009,04,27,05,41,3.30
2009,04,27,05,42,3.30
2009,04,27,05,43,3.30
2009,04,27,05,44,3.30
2009,04,27,05,45,3.30
2009,04,27,05,46,3.30
2009,04,27,05,47,3.30
2009,04,27,05,48,3.30
2009,04,27,05,49,3.30
2009,04,27,05,50,3.30
2009,04,27,05,51,3.30
2009,04,27,05,52,3.30
2009,04,27,05,53,3.30
2009,04,27,05,54,3.30
2009,04,27,05,55,3.30
2009,04,27,05,56,3.30
2009,04,27,05,57,3.30
2009,04,27,05,58,3.30
2009,04,27,05,59,3.30
2009,04,27,06,00,3.30
2009,04,27,06,01,3.30
2009,04,27,06,02,3.30
2009,04,27,06,03,3.30
2009,04,27,06,04,3.30
2009,04,27,06,05,3.30
2009,04,27,06,06,3.30
2009,04,27,06,07,3.30
2009,04,27,06,08,3.30
2009,04,27,06,09,3.30
2009,04,27,06,10,3.30
2009,04,27,06,11,3.30
2009,04,27,06,12,3.30
2009,04,27,06,13,3.30
2009,04,27,06,14,3.30
2009,04,27,06,15,3.30
2009,04,27,06,16,3.30
2009,04,27,06,17,3.30
2009,04,27,06,18,3.20
2009,04,27,06,19,3.20
2009,04,27,06,20,3.20
2009,04,27,06,21,3.20
2009,04,27,06,22,3.20
2009,04,27,06,23,3.20
2009,04,27,06,24,3.20
2009,04,27,06,25,3.30
2009,04,27,06,26,3.30
2009,04,27,06,27,3.20
2009,04,27,06,28,3.20
2009,04,27,06,29,3.20
2009,04,27,06,30,3.20
2009,04,27,06,31,3.20
2009,04,27,06,32,3.10
2009,04,27,06,33,3.20
2009,04,27,06,34,3.20
2009,04,27,06,35,3.20
2009,04,27,06,36,3.20
2009,04,27,06,37,3.30
2009,04,27,06,38,3.30
2009,04,27,06,39,3.30
2009,04,27,06,40,3.30
2009,04,27,06,41,3.30
2009,04,27,06,42,3.30
2009,04,27,06,43,3.40
2009,04,27,06,44,3.40
2009,04,27,06,45,3.40
2009,04,27,06,46,3.50
2009,04,27,06,47,3.50
2009,04,27,06,48,3.60
2009,04,27,06,49,3.60
2009,04,27,06,50,3.70
2009,04,27,06,51,3.70
2009,04,27,06,52,3.80
2009,04,27,06,53,3.80
2009,04,27,06,54,3.80
2009,04,27,06,55,3.80
2009,04,27,06,56,3.90
2009,04,27,06,57,3.90
2009,04,27,06,58,3.90
2009,04,27,06,59,4.00
2009,04,27,07,00,4.00
2009,04,27,07,01,4.00
2009,04,27,07,02,4.10
2009,04,27,07,03,4.20
2009,04,27,07,04,4.20
2009,04,27,07,05,4.20
2009,04,27,07,06,4.10
2009,04,27,07,07,4.10
2009,04,27,07,08,4.10
2009,04,27,07,09,4.10
2009,04,27,07,10,4.10
2009,04,27,07,11,4.10
2009,04,27,07,12,4.10
2009,04,27,07,13,4.20
2009,04,27,07,14,4.20
2009,04,27,07,15,4.20
2009,04,27,07,16,4.20
2009,04,27,07,17,4.30
2009,04,27,07,18,4.30
2009,04,27,07,19,4.40
2009,04,27,07,20,4.40
2009,04,27,07,21,4.50
2009,04,27,07,22,4.60
2009,04,27,07,23,4.70
2009,04,27,07,24,4.80
2009,04,27,07,25,4.80
2009,04,27,07,26,4.90
2009,04,27,07,27,5.00
2009,04,27,07,28,5.10
2009,04,27,07,29,5.10
2009,04,27,07,30,5.10
2009,04,27,07,31,5.20
2009,04,27,07,32,5.20
2009,04,27,07,33,5.30
2009,04,27,07,34,5.30
2009,04,27,07,35,5.40
2009,04,27,07,36,5.40
2009,04,27,07,37,5.50
2009,04,27,07,38,5.50
2009,04,27,07,39,5.60
2009,04,27,07,40,5.60
2009,04,27,07,41,5.70
2009,04,27,07,42,5.70
2009,04,27,07,43,5.70
2009,04,27,07,44,5.80
2009,04,27,07,45,5.90
2009,04,27,07,46,6.00
2009,04,27,07,47,6.10
2009,04,27,07,48,6.20
2009,04,27,07,49,6.30
2009,04,27,07,50,6.40
2009,04,27,07,51,6.50
2009,04,27,07,52,6.60
2009,04,27,07,53,6.60
2009,04,27,07,54,6.70
2009,04,27,07,55,6.70
2009,04,27,07,56,6.80
2009,04,27,07,57,6.80
2009,04,27,07,58,6.80
2009,04,27,07,59,6.90
2009,04,27,08,00,6.90
2009,04,27,08,01,7.00
2009,04,27,08,02,7.00
2009,04,27,08,03,7.10
2009,04,27,08,04,7.10
2009,04,27,08,05,7.10
2009,04,27,08,06,7.20
2009,04,27,08,07,7.20
2009,04,27,08,08,7.30
2009,04,27,08,09,7.30
2009,04,27,08,10,7.30
2009,04,27,08,11,7.40
2009,04,27,08,12,7.50
2009,04,27,08,13,7.60
2009,04,27,08,14,7.70
2009,04,27,08,15,7.70
2009,04,27,08,16,7.80
2009,04,27,08,17,7.80
2009,04,27,08,18,7.90
2009,04,27,08,19,7.90
2009,04,27,08,20,8.00
2009,04,27,08,21,8.00
2009,04,27,08,22,8.10
2009,04,27,08,23,8.10
2009,04,27,08,24,8.20
2009,04,27,08,25,8.20
2009,04,27,08,26,8.20
2009,04,27,08,27,8.20
2009,04,27,08,28,8.20
2009,04,27,08,29,8.30
2009,04,27,08,30,8.30
2009,04,27,08,31,8.30
2009,04,27,08,32,8.30
2009,04,27,08,33,8.40
2009,04,27,08,34,8.50
2009,04,27,08,35,8.50
2009,04,27,08,36,8.50
2009,04,27,08,37,8.70
2009,04,27,08,38,8.70
2009,04,27,08,39,8.80
2009,04,27,08,40,8.90
2009,04,27,08,41,8.90
2009,04,27,08,42,9.00
2009,04,27,08,43,9.00
2009,04,27,08,44,9.00
2009,04,27,08,45,9.10
2009,04,27,08,46,9.10
2009,04,27,08,47,9.20
2009,04,27,08,48,9.20
2009,04,27,08,49,9.20
2009,04,27,08,50,9.20
2009,04,27,08,51,9.00
2009,04,27,08,52,9.00
2009,04,27,08,53,8.80
2009,04,27,08,54,8.70
2009,04,27,08,55,8.60
2009,04,27,08,56,8.50
2009,04,27,08,57,8.40
2009,04,27,08,58,8.40
2009,04,27,08,59,8.40
2009,04,27,09,00,8.30
2009,04,27,09,01,8.30
2009,04,27,09,02,8.30
2009,04,27,09,03,8.30
2009,04,27,09,04,8.30
2009,04,27,09,05,8.30
2009,04,27,09,06,8.30
2009,04,27,09,07,8.30
2009,04,27,09,08,8.30
2009,04,27,09,09,8.30
2009,04,27,09,10,8.30
2009,04,27,09,11,8.40
2009,04,27,09,12,8.40
2009,04,27,09,13,8.50
2009,04,27,09,14,8.50
2009,04,27,09,15,8.60
2009,04,27,09,16,8.60
2009,04,27,09,17,8.70
2009,04,27,09,18,8.80
2009,04,27,09,19,8.80
2009,04,27,09,20,8.80
2009,04,27,09,21,8.90
2009,04,27,09,22,8.90
2009,04,27,09,23,8.90
2009,04,27,09,24,9.00
2009,04,27,09,25,9.10
2009,04,27,09,26,9.10
2009,04,27,09,27,9.20
2009,04,27,09,28,9.10
2009,04,27,09,29,9.00
2009,04,27,09,30,9.00
2009,04,27,09,31,9.00
2009,04,27,09,32,8.90
2009,04,27,09,33,8.90
2009,04,27,09,34,9.00
2009,04,27,09,35,8.90
2009,04,27,09,36,8.90
2009,04,27,09,37,8.80
2009,04,27,09,38,8.70
2009,04,27,09,39,8.60
2009,04,27,09,40,8.60
2009,04,27,09,41,8.60
2009,04,27,09,42,8.60
2009,04,27,09,43,8.50
2009,04,27,09,44,8.50
2009,04,27,09,45,8.50
2009,04,27,09,46,8.50
2009,04,27,09,47,8.60
2009,04,27,09,48,8.60
2009,04,27,09,49,8.60
2009,04,27,09,50,8.60
2009,04,27,09,51,8.70
2009,04,27,09,52,8.80
2009,04,27,09,53,8.80
2009,04,27,09,54,8.80
2009,04,27,09,55,8.90
2009,04,27,09,56,8.90
2009,04,27,09,57,8.90
2009,04,27,09,58,8.90
2009,04,27,09,59,9.00
2009,04,27,10,00,9.00
2009,04,27,10,01,9.10
2009,04,27,10,02,9.20
2009,04,27,10,03,9.30
2009,04,27,10,04,9.30
2009,04,27,10,05,9.40
2009,04,27,10,06,9.40
2009,04,27,10,07,9.40
2009,04,27,10,08,9.40
2009,04,27,10,09,9.50
2009,04,27,10,10,9.60
2009,04,27,10,11,9.60
2009,04,27,10,12,9.70
2009,04,27,10,13,9.70
2009,04,27,10,14,9.80
2009,04,27,10,15,9.90
2009,04,27,10,16,9.90
2009,04,27,10,17,9.90
2009,04,27,10,18,10.00
2009,04,27,10,19,10.10
2009,04,27,10,20,10.10
2009,04,27,10,21,10.10
2009,04,27,10,22,10.10
2009,04,27,10,23,10.10
2009,04,27,10,24,10.20
2009,04,27,10,25,10.20
2009,04,27,10,26,10.20
2009,04,27,10,27,10.20
2009,04,27,10,28,10.20
2009,04,27,10,29,10.10
2009,04,27,10,30,10.20
2009,04,27,10,31,10.30
2009,04,27,10,32,10.40
2009,04,27,10,33,10.40
2009,04,27,10,34,10.50
2009,04,27,10,35,10.60
2009,04,27,10,36,10.60
2009,04,27,10,37,10.70
2009,04,27,10,38,10.70
2009,04,27,10,39,10.70
2009,04,27,10,40,10.80
2009,04,27,10,41,10.90
2009,04,27,10,42,10.90
2009,04,27,10,43,10.90
2009,04,27,10,44,10.90
2009,04,27,10,45,11.00
2009,04,27,10,46,11.10
2009,04,27,10,47,11.20
2009,04,27,10,48,11.30
2009,04,27,10,49,11.40
2009,04,27,10,50,11.60
2009,04,27,10,51,11.70
2009,04,27,10,52,11.80
2009,04,27,10,53,11.80
2009,04,27,10,54,11.70
2009,04,27,10,55,11.70
2009,04,27,10,56,11.70
2009,04,27,10,57,11.60
2009,04,27,10,58,11.60
2009,04,27,10,59,11.50
2009,04,27,11,00,11.40
2009,04,27,11,01,11.40
2009,04,27,11,02,11.40
2009,04,27,11,03,11.40
2009,04,27,11,04,11.40
2009,04,27,11,05,11.30
2009,04,27,11,06,11.20
2009,04,27,11,07,11.10
2009,04,27,11,08,11.10
2009,04,27,11,09,11.00
2009,04,27,11,10,11.00
2009,04,27,11,11,10.90
2009,04,27,11,12,10.90
2009,04,27,11,13,10.80
2009,04,27,11,14,10.80
2009,04,27,11,15,10.60
2009,04,27,11,16,10.60
2009,04,27,11,17,10.60
2009,04,27,11,18,10.60
2009,04,27,11,19,10.60
2009,04,27,11,20,10.60
2009,04,27,11,21,10.60
2009,04,27,11,22,10.50
2009,04,27,11,23,10.40
2009,04,27,11,24,10.40
2009,04,27,11,25,10.50
2009,04,27,11,26,10.60
2009,04,27,11,27,10.60
2009,04,27,11,28,10.60
2009,04,27,11,29,10.70
2009,04,27,11,30,10.80
2009,04,27,11,31,10.70
2009,04,27,11,32,10.70
2009,04,27,11,33,10.80
2009,04,27,11,34,10.90
2009,04,27,11,35,10.90
2009,04,27,11,36,10.90
2009,04,27,11,37,10.90
2009,04,27,11,38,10.90
2009,04,27,11,39,10.90
2009,04,27,11,40,11.10
2009,04,27,11,41,10.90
2009,04,27,11,42,10.90
2009,04,27,11,43,10.90
2009,04,27,11,44,10.90
2009,04,27,11,45,11.00
2009,04,27,11,46,11.10
2009,04,27,11,47,11.20
2009,04,27,11,48,11.30
2009,04,27,11,49,11.30
2009,04,27,11,50,11.30
2009,04,27,11,51,11.20
2009,04,27,11,52,11.20
2009,04,27,11,53,11.10
2009,04,27,11,54,11.10
2009,04,27,11,55,11.10
2009,04,27,11,56,11.10
2009,04,27,11,57,11.10
2009,04,27,11,58,11.10
2009,04,27,11,59,11.20
2009,04,27,12,00,11.20
2009,04,27,12,01,11.20
2009,04,27,12,02,11.20
2009,04,27,12,03,11.20
2009,04,27,12,04,11.20
2009,04,27,12,05,11.30
2009,04,27,12,06,11.30
2009,04,27,12,07,11.40
2009,04,27,12,08,11.60
2009,04,27,12,09,11.70
2009,04,27,12,10,11.90
2009,04,27,12,11,12.00
2009,04,27,12,12,12.10
2009,04,27,12,13,12.20
2009,04,27,12,14,12.30
2009,04,27,12,15,12.30
2009,04,27,12,16,12.30
2009,04,27,12,17,12.30
2009,04,27,12,18,12.20
2009,04,27,12,19,12.10
2009,04,27,12,20,12.10
2009,04,27,12,21,12.10
2009,04,27,12,22,12.10
2009,04,27,12,23,12.10
2009,04,27,12,24,12.10
2009,04,27,12,25,12.10
2009,04,27,12,26,12.00
2009,04,27,12,27,12.00
2009,04,27,12,28,12.00
2009,04,27,12,29,12.10
2009,04,27,12,30,12.10
2009,04,27,12,31,12.10
2009,04,27,12,32,12.20
2009,04,27,12,33,12.40
2009,04,27,12,34,12.50
2009,04,27,12,35,12.60
2009,04,27,12,36,12.70
2009,04,27,12,37,12.60
2009,04,27,12,38,12.60
2009,04,27,12,39,12.60
2009,04,27,12,40,12.60
2009,04,27,12,41,12.50
2009,04,27,12,42,12.50
2009,04,27,12,43,12.40
2009,04,27,12,44,12.40
2009,04,27,12,45,12.40
2009,04,27,12,46,12.50
2009,04,27,12,47,12.50
2009,04,27,12,48,12.60
2009,04,27,12,49,12.80
2009,04,27,12,50,12.90
2009,04,27,12,51,13.10
2009,04,27,12,52,13.30
2009,04,27,12,53,13.30
2009,04,27,12,54,13.40
2009,04,27,12,55,13.40
2009,04,27,12,56,13.40
2009,04,27,12,57,13.30
2009,04,27,12,58,13.20
2009,04,27,12,59,13.10
2009,04,27,13,00,13.10
2009,04,27,13,01,13.10
2009,04,27,13,02,13.00
2009,04,27,13,03,12.90
2009,04,27,13,04,12.90
2009,04,27,13,05,12.90
2009,04,27,13,06,12.90
2009,04,27,13,07,12.80
2009,04,27,13,08,12.80
2009,04,27,13,09,12.80
2009,04,27,13,10,12.80
2009,04,27,13,11,12.80
2009,04,27,13,12,12.80
2009,04,27,13,13,12.80
2009,04,27,13,14,12.80
2009,04,27,13,15,12.80
2009,04,27,13,16,12.90
2009,04,27,13,17,13.00
2009,04,27,13,18,13.00
2009,04,27,13,19,13.20
2009,04,27,13,20,13.30
2009,04,27,13,21,13.40
2009,04,27,13,22,13.50
2009,04,27,13,23,13.50
2009,04,27,13,24,13.60
2009,04,27,13,25,13.60
2009,04,27,13,26,13.70
2009,04,27,13,27,13.60
2009,04,27,13,28,13.60
2009,04,27,13,29,13.50
2009,04,27,13,30,13.40
2009,04,27,13,31,13.10
2009,04,27,13,32,13.00
2009,04,27,13,33,12.90
2009,04,27,13,34,12.90
2009,04,27,13,35,12.90
2009,04,27,13,36,12.80
2009,04,27,13,37,12.80
2009,04,27,13,38,12.70
2009,04,27,13,39,12.60
2009,04,27,13,40,12.50
2009,04,27,13,41,12.50
2009,04,27,13,42,12.50
2009,04,27,13,43,12.50
2009,04,27,13,44,12.50
2009,04,27,13,45,12.40
2009,04,27,13,46,12.50
2009,04,27,13,47,12.60
2009,04,27,13,48,12.70
2009,04,27,13,49,12.80
2009,04,27,13,50,12.80
2009,04,27,13,51,12.80
2009,04,27,13,52,12.90
2009,04,27,13,53,12.90
2009,04,27,13,54,13.00
2009,04,27,13,55,13.10
2009,04,27,13,56,13.20
2009,04,27,13,57,13.40
2009,04,27,13,58,13.60
2009,04,27,13,59,13.70
2009,04,27,14,00,13.70
2009,04,27,14,01,13.70
2009,04,27,14,02,13.80
2009,04,27,14,03,13.90
2009,04,27,14,04,14.00
2009,04,27,14,05,14.10
2009,04,27,14,06,14.20
2009,04,27,14,07,14.40
2009,04,27,14,08,14.50
2009,04,27,14,09,14.40
2009,04,27,14,10,14.30
2009,04,27,14,11,14.40
2009,04,27,14,12,14.40
2009,04,27,14,13,14.40
2009,04,27,14,14,14.40
2009,04,27,14,15,14.50
2009,04,27,14,16,14.40
2009,04,27,14,17,14.30
2009,04,27,14,18,14.20
2009,04,27,14,19,14.20
2009,04,27,14,20,14.30
2009,04,27,14,21,14.30
2009,04,27,14,22,14.40
2009,04,27,14,23,14.50
2009,04,27,14,24,14.40
2009,04,27,14,25,14.50
2009,04,27,14,26,14.50
2009,04,27,14,27,14.40
2009,04,27,14,28,14.20
2009,04,27,14,29,14.10
2009,04,27,14,30,14.00
2009,04,27,14,31,13.90
2009,04,27,14,32,13.90
2009,04,27,14,33,13.90
2009,04,27,14,34,13.90
2009,04,27,14,35,14.00
2009,04,27,14,36,14.20
2009,04,27,14,37,14.40
2009,04,27,14,38,14.50
2009,04,27,14,39,14.60
2009,04,27,14,40,14.70
2009,04,27,14,41,14.70
2009,04,27,14,42,14.70
2009,04,27,14,43,14.80
2009,04,27,14,44,14.80
2009,04,27,14,45,14.80
2009,04,27,14,46,14.80
2009,04,27,14,47,15.00
2009,04,27,14,48,15.00
2009,04,27,14,49,14.90
2009,04,27,14,50,14.90
2009,04,27,14,51,14.80
2009,04,27,14,52,14.80
2009,04,27,14,53,14.80
2009,04,27,14,54,14.60
2009,04,27,14,55,14.50
2009,04,27,14,56,14.50
2009,04,27,14,57,14.60
2009,04,27,14,58,14.70
2009,04,27,14,59,14.70
2009,04,27,15,00,14.80
2009,04,27,15,01,14.80
2009,04,27,15,02,14.80
2009,04,27,15,03,14.80
2009,04,27,15,04,14.80
2009,04,27,15,05,14.80
2009,04,27,15,06,14.80
2009,04,27,15,07,14.90
2009,04,27,15,08,15.10
2009,04,27,15,09,15.10
2009,04,27,15,10,15.10
2009,04,27,15,11,15.20
2009,04,27,15,12,15.30
2009,04,27,15,13,15.30
2009,04,27,15,14,15.50
2009,04,27,15,15,15.50
2009,04,27,15,16,15.60
2009,04,27,15,17,15.50
2009,04,27,15,18,15.30
2009,04,27,15,19,15.20
2009,04,27,15,20,15.10
2009,04,27,15,21,15.10
2009,04,27,15,22,15.10
2009,04,27,15,23,15.10
2009,04,27,15,24,15.10
2009,04,27,15,25,15.20
2009,04,27,15,26,15.30
2009,04,27,15,27,15.30
2009,04,27,15,28,15.30
2009,04,27,15,29,15.30
2009,04,27,15,30,15.30
2009,04,27,15,31,15.30
2009,04,27,15,32,15.20
2009,04,27,15,33,15.20
2009,04,27,15,34,15.20
2009,04,27,15,35,15.30
2009,04,27,15,36,15.30
2009,04,27,15,37,15.40
2009,04,27,15,38,15.40
2009,04,27,15,39,15.30
2009,04,27,15,40,15.20
2009,04,27,15,41,15.20
2009,04,27,15,42,15.30
2009,04,27,15,43,15.20
2009,04,27,15,44,15.30
2009,04,27,15,45,15.20
2009,04,27,15,46,15.20
2009,04,27,15,47,15.20
2009,04,27,15,48,15.20
2009,04,27,15,49,15.10
2009,04,27,15,50,15.10
2009,04,27,15,51,15.10
2009,04,27,15,52,15.00
2009,04,27,15,53,14.90
2009,04,27,15,54,15.00
2009,04,27,15,55,15.10
2009,04,27,15,56,15.10
2009,04,27,15,57,15.30
2009,04,27,15,58,15.40
2009,04,27,15,59,15.50
2009,04,27,16,00,15.40
2009,04,27,16,01,15.30
2009,04,27,16,02,15.20
2009,04,27,16,03,15.20
2009,04,27,16,04,15.20
2009,04,27,16,05,15.20
2009,04,27,16,06,15.20
2009,04,27,16,07,15.10
2009,04,27,16,08,15.10
2009,04,27,16,09,15.20
2009,04,27,16,10,15.20
2009,04,27,16,11,15.20
2009,04,27,16,12,15.30
2009,04,27,16,13,15.30
2009,04,27,16,14,15.30
2009,04,27,16,15,15.20
2009,04,27,16,16,15.10
2009,04,27,16,17,15.10
2009,04,27,16,18,15.10
2009,04,27,16,19,15.00
2009,04,27,16,20,15.10
2009,04,27,16,21,15.30
2009,04,27,16,22,15.30
2009,04,27,16,23,15.30
2009,04,27,16,24,15.30
2009,04,27,16,25,15.30
2009,04,27,16,26,15.20
2009,04,27,16,27,15.10
2009,04,27,16,28,14.90
2009,04,27,16,29,14.80
2009,04,27,16,30,14.70
2009,04,27,16,31,14.80
2009,04,27,16,32,14.70
2009,04,27,16,33,14.50
2009,04,27,16,34,14.40
2009,04,27,16,35,14.20
2009,04,27,16,36,14.10
2009,04,27,16,37,13.90
2009,04,27,16,38,13.70
2009,04,27,16,39,13.70
2009,04,27,16,40,13.70
2009,04,27,16,41,13.70
2009,04,27,16,42,13.80
2009,04,27,16,43,13.90
2009,04,27,16,44,13.90
2009,04,27,16,45,14.00
2009,04,27,16,46,14.10
2009,04,27,16,47,14.20
2009,04,27,16,48,14.20
2009,04,27,16,49,14.20
2009,04,27,16,50,14.20
2009,04,27,16,51,14.30
2009,04,27,16,52,14.30
2009,04,27,16,53,14.40
2009,04,27,16,54,14.40
2009,04,27,16,55,14.30
2009,04,27,16,56,14.30
2009,04,27,16,57,14.30
2009,04,27,16,58,14.30
2009,04,27,16,59,14.30
2009,04,27,17,00,14.40
2009,04,27,17,01,14.50
2009,04,27,17,02,14.60
2009,04,27,17,03,14.60
2009,04,27,17,04,14.60
2009,04,27,17,05,14.60
2009,04,27,17,06,14.70
2009,04,27,17,07,14.80
2009,04,27,17,08,14.80
2009,04,27,17,09,14.80
2009,04,27,17,10,14.80
2009,04,27,17,11,14.80
2009,04,27,17,12,14.70
2009,04,27,17,13,14.60
2009,04,27,17,14,14.50
2009,04,27,17,15,14.50
2009,04,27,17,16,14.50
2009,04,27,17,17,14.60
2009,04,27,17,18,14.60
2009,04,27,17,19,14.50
2009,04,27,17,20,14.60
2009,04,27,17,21,14.60
2009,04,27,17,22,14.60
2009,04,27,17,23,14.60
2009,04,27,17,24,14.60
2009,04,27,17,25,14.50
2009,04,27,17,26,14.50
2009,04,27,17,27,14.60
2009,04,27,17,28,14.60
2009,04,27,17,29,14.60
2009,04,27,17,30,14.60
2009,04,27,17,31,14.50
2009,04,27,17,32,14.40
2009,04,27,17,33,14.40
2009,04,27,17,34,14.50
2009,04,27,17,35,14.60
2009,04,27,17,36,14.60
2009,04,27,17,37,14.70
2009,04,27,17,38,14.80
2009,04,27,17,39,14.80
2009,04,27,17,40,14.80
2009,04,27,17,41,14.80
2009,04,27,17,42,14.70
2009,04,27,17,43,14.60
2009,04,27,17,44,14.60
2009,04,27,17,45,14.50
2009,04,27,17,46,14.50